DW3560 Weather Reports


Display with metric or nautical units.
time (UTC)temp
F
wind
direction
speed
MPH
gust
MPH
rain 1hr
in
rain 24hr
in
rain mn
in
humidity
%
barometer
mb
20260904052003 61 255 2.0 4.0 0.01 0.05 0.05 92 1013.6
20260904051503 61 256 1.0 4.0 0.01 0.05 0.05 93 1013.6
20260904051024 61 257 0.0 4.0 0.01 0.05 0.05 92 1013.6
20260904050503 61 266 0.0 4.0 0.02 0.05 0.05 92 1013.6
20260904050003 61 274 0.0 4.0 0.02 0.05 0.05 92 1013.6
20260904045524 62 300 0.0 4.0 0.03 0.05 0.05 92 1013.6
20260904045024 62 267 1.0 4.0 0.02 0.04 0.04 92 1013.6
20260904044502 62 251 1.0 4.0 0.03 0.04 0.04 92 1013.6
20260904044003 62 257 1.0 4.0 0.04 0.04 0.04 92 1013.6
20260904043503 62 269 1.0 3.0 0.04 0.04 0.04 92 1013.6
20260904043003 62 282 1.0 3.0 0.04 0.04 0.04 92 1013.6
20260904042523 62 291 1.0 3.0 0.04 0.04 0.04 91 1013.6
20260904042002 62 294 0.0 2.0 0.04 0.04 0.04 91 1013.6
20260904041524 62 295 0.0 2.0 0.04 0.04 0.04 91 1013.6
20260904041002 62 293 0.0 3.0 0.04 0.04 0.04 91 1013.6
20260904040524 62 290 0.0 3.0 0.03 0.03 0.03 91 1013.6
20260904040003 63 307 0.0 4.0 0.03 0.03 0.03 91 1013.6
20260904035502 63 293 1.0 4.0 0.02 0.02 0.02 91 1013.6
20260904035002 63 273 1.0 5.0 0.02 0.02 0.02 91 1013.6
20260904034502 63 261 1.0 5.0 0.01 0.01 0.01 90 1013.6
20260904034002 63 247 1.0 6.0 0.00 0.00 0.00 90 1013.6
20260904033503 63 230 1.0 6.0 0.00 0.00 0.00 90 1013.6
20260904033002 63 201 2.0 6.0 0.00 0.00 0.00 90 1013.6
20260904032503 63 202 2.0 8.0 0.00 0.00 0.00 90 1013.6
20260904032003 64 222 2.0 8.0 0.00 0.00 0.00 89 1013.6
20260904031503 64 242 2.0 7.0 0.00 0.00 0.00 89 1013.6
20260904031003 64 242 3.0 8.0 0.00 0.00 0.00 89 1013.6
20260904030503 64 232 3.0 8.0 0.00 0.00 0.00 88 1013.6
20260904030024 64 205 3.0 6.0 0.00 0.00 0.00 88 1013.6
20260904025503 64 209 3.0 7.0 0.00 0.00 0.00 88 1013.6
20260904025002 64 232 2.0 7.0 0.00 0.00 0.00 88 1013.6
20260904024503 64 239 1.0 4.0 0.00 0.00 0.00 88 1013.6
20260904024003 64 240 1.0 4.0 0.00 0.00 0.00 88 1013.6
20260904023503 64 244 2.0 4.0 0.00 0.00 0.00 87 1013.6
20260904023003 64 251 3.0 8.0 0.00 0.00 0.00 87 1013.6
20260904022503 64 257 2.0 8.0 0.00 0.00 0.00 87 1013.6
20260904022003 64 265 1.0 6.0 0.00 0.00 0.00 87 1013.6
20260904021503 64 272 1.0 4.0 0.00 0.00 0.00 87 1013.6
20260904021003 64 256 1.0 4.0 0.00 0.00 0.00 86 1013.6
20260904020502 64 249 2.0 7.0 0.00 0.00 0.00 86 1013.6
20260904020003 65 252 2.0 7.0 0.00 0.00 0.00 86 1013.6
20260904015503 65 259 3.0 8.0 0.00 0.00 0.00 85 1013.6
20260904015003 65 261 3.0 8.0 0.00 0.00 0.00 85 1013.6
20260904014503 65 258 2.0 8.0 0.00 0.00 0.00 84 1013.6
20260904014003 65 259 2.0 9.0 0.00 0.00 0.00 84 1013.6
20260904013524 65 266 2.0 9.0 0.00 0.00 0.00 83 1013.6
20260904013003 66 261 3.0 9.0 0.00 0.00 0.00 83 1013.6
20260904012503 66 259 3.0 9.0 0.00 0.00 0.00 82 1013.6
20260904012024 66 266 2.0 8.0 0.00 0.00 0.00 81 1013.6
20260904011503 66 262 3.0 9.0 0.00 0.00 0.00 80 1013.6
20260904011003 66 257 4.0 13.0 0.00 0.00 0.00 80 1013.6
20260904010533 67 257 3.0 13.0 0.00 0.00 0.00 79 1013.6
20260904010002 67 265 3.0 11.0 0.00 0.00 0.00 78 1013.6
20260904005524 68 280 2.0 8.0 0.00 0.00 0.00 77 1013.6
20260904005003 68 286 2.0 7.0 0.00 0.00 0.00 76 1013.6
20260904004524 68 280 2.0 9.0 0.00 0.00 0.00 76 1013.6
20260904004003 68 274 3.0 9.0 0.00 0.00 0.00 74 1013.6
20260904003503 69 276 3.0 9.0 0.00 0.00 0.00 73 1013.6
20260904003003 69 278 2.0 9.0 0.00 0.00 0.00 72 1013.6
20260904002502 70 263 2.0 8.0 0.00 0.00 0.00 71 1013.6
20260904002003 70 262 3.0 10.0 0.00 0.00 0.00 71 1013.6
20260904001502 70 275 3.0 10.0 0.00 0.00 0.00 70 1013.6
20260904001003 70 287 3.0 9.0 0.00 0.00 0.00 71 1013.6
20260904000524 70 279 3.0 9.0 0.00 0.00 0.00 71 1013.6
20260904000003 70 274 3.0 9.0 0.00 0.00 0.00 71 1013.6
20260903235503 70 279 3.0 11.0 0.00 0.00 0.00 70 1013.6
20260903235003 71 272 3.0 11.0 0.00 0.00 0.00 69 1013.6
20260903234503 71 267 3.0 8.0 0.00 0.00 0.00 69 1013.6
20260903234002 72 283 3.0 8.0 0.00 0.00 0.00 68 1013.6
20260903233503 72 298 3.0 9.0 0.00 0.00 0.00 69 1013.6
20260903233003 72 293 3.0 9.0 0.00 0.00 0.00 68 1013.6
20260903232524 72 280 3.0 9.0 0.00 0.00 0.00 69 1013.6
20260903232024 72 273 3.0 9.0 0.00 0.00 0.00 68 1013.6
20260903231503 72 313 3.0 13.0 0.00 0.00 0.00 68 1013.6
20260903231003 72 303 3.0 13.0 0.00 0.00 0.00 68 1013.6
20260903230503 72 272 2.0 9.0 0.00 0.00 0.00 68 1013.6
20260903230003 72 307 2.0 8.0 0.00 0.00 0.00 68 1013.6
20260903225503 72 289 2.0 9.0 0.00 0.00 0.00 68 1013.6
20260903225003 72 261 3.0 9.0 0.00 0.00 0.00 68 1013.6
20260903224502 72 252 4.0 9.0 0.00 0.00 0.00 67 1013.6
20260903224003 72 257 4.0 9.0 0.00 0.00 0.00 67 1013.6
20260903223502 72 261 4.0 12.0 0.00 0.00 0.00 67 1013.6
20260903223003 72 276 4.0 12.0 0.00 0.00 0.00 66 1013.6
20260903222503 73 312 3.0 11.0 0.00 0.00 0.00 66 1013.6
20260903222003 73 308 3.0 8.0 0.00 0.00 0.00 67 1013.6
20260903221503 73 291 3.0 8.0 0.00 0.00 0.00 66 1013.6
20260903221003 73 286 4.0 9.0 0.00 0.00 0.00 67 1013.6
20260903220524 73 278 3.0 9.0 0.00 0.00 0.00 67 1013.6
20260903220024 73 258 3.0 11.0 0.00 0.00 0.00 67 1013.6
20260903215503 73 257 3.0 11.0 0.00 0.00 0.00 67 1013.6
20260903215003 73 267 2.0 10.0 0.00 0.00 0.00 67 1013.6
20260903214503 73 268 2.0 7.0 0.00 0.00 0.00 67 1013.6
20260903214003 72 279 2.0 7.0 0.00 0.00 0.00 67 1014.4
20260903213503 72 310 2.0 8.0 0.00 0.00 0.00 68 1014.4
20260903213003 72 286 3.0 9.0 0.00 0.00 0.00 69 1014.4
20260903212503 71 296 3.0 11.0 0.00 0.00 0.00 70 1014.4
20260903212003 71 307 3.0 11.0 0.00 0.00 0.00 70 1014.4
20260903211503 70 289 3.0 8.0 0.00 0.00 0.00 71 1014.4
20260903211003 70 301 2.0 8.0 0.00 0.00 0.00 71 1014.4
20260903210503 70 305 2.0 5.0 0.00 0.00 0.00 71 1014.4
20260903210003 70 261 2.0 7.0 0.00 0.00 0.00 72 1014.4
20260903205503 69 258 2.0 7.0 0.00 0.00 0.00 71 1014.4
20260903205024 69 264 2.0 7.0 0.00 0.00 0.00 71 1014.4
20260903204503 69 253 4.0 9.0 0.00 0.00 0.00 71 1014.4
20260903204003 69 253 4.0 9.0 0.00 0.00 0.00 70 1014.4
20260903203503 70 256 4.0 10.0 0.00 0.00 0.00 70 1014.4
20260903203024 70 258 3.0 10.0 0.00 0.00 0.00 69 1014.4
20260903202503 70 255 3.0 10.0 0.00 0.00 0.00 69 1014.4
20260903202003 71 256 2.0 10.0 0.00 0.00 0.00 68 1014.4
20260903201503 71 251 2.0 8.0 0.00 0.00 0.00 68 1014.4
20260903201003 71 253 3.0 8.0 0.00 0.00 0.00 68 1014.4
20260903200503 71 256 3.0 11.0 0.00 0.00 0.00 68 1014.4
20260903200003 70 249 2.0 11.0 0.00 0.00 0.00 69 1014.4
20260903195503 70 258 2.0 8.0 0.00 0.00 0.00 69 1014.4
20260903195003 70 271 2.0 6.0 0.00 0.00 0.00 70 1014.4
20260903194524 69 249 3.0 9.0 0.00 0.00 0.00 71 1014.4
20260903194003 69 247 4.0 9.0 0.00 0.00 0.00 69 1015.0
20260903193503 69 247 2.0 7.0 0.00 0.00 0.00 70 1015.0
20260903193003 69 250 2.0 9.0 0.00 0.00 0.00 69 1015.0
20260903192503 69 252 3.0 11.0 0.00 0.00 0.00 69 1015.0
20260903192024 69 252 2.0 11.0 0.00 0.00 0.00 68 1015.0
20260903191503 69 266 2.0 6.0 0.00 0.00 0.00 68 1015.0
20260903191003 69 276 3.0 6.0 0.00 0.00 0.00 68 1015.0
20260903190503 69 276 2.0 6.0 0.00 0.00 0.00 69 1015.0
20260903190003 68 232 2.0 6.0 0.00 0.00 0.00 69 1015.0
20260903185503 68 208 3.0 9.0 0.00 0.00 0.00 69 1015.0
20260903185003 68 240 3.0 9.0 0.00 0.00 0.00 69 1015.0
20260903184524 68 266 3.0 9.0 0.00 0.00 0.00 69 1015.0
20260903184003 68 250 3.0 8.0 0.00 0.00 0.00 69 1015.0
20260903183503 68 244 3.0 8.0 0.00 0.00 0.00 69 1015.0
20260903183003 68 252 3.0 8.0 0.00 0.00 0.00 69 1015.0
20260903182524 68 239 3.0 11.0 0.00 0.00 0.00 69 1015.0
20260903182024 68 195 4.0 11.0 0.00 0.00 0.00 70 1015.0
20260903181503 67 187 3.0 9.0 0.00 0.00 0.00 71 1015.0
20260903181024 67 187 3.0 9.0 0.00 0.00 0.00 71 1015.0
20260903180503 67 202 3.0 9.0 0.00 0.00 0.00 72 1015.0
20260903180003 66 230 3.0 7.0 0.00 0.00 0.00 73 1015.0
20260903175503 66 208 3.0 8.0 0.00 0.00 0.00 73 1015.0
20260903175003 66 204 3.0 8.0 0.00 0.00 0.00 74 1015.0
20260903174503 65 210 3.0 8.0 0.00 0.00 0.00 75 1015.0
20260903174003 65 222 2.0 8.0 0.00 0.00 0.00 75 1015.2
20260903173503 64 200 3.0 8.0 0.00 0.00 0.00 76 1015.2
20260903173003 64 176 3.0 8.0 0.00 0.00 0.00 76 1015.2
20260903172503 64 177 3.0 7.0 0.00 0.00 0.00 77 1015.2
20260903172003 64 184 3.0 8.0 0.00 0.00 0.00 77 1015.2
20260903171524 63 181 4.0 8.0 0.00 0.00 0.00 77 1015.2
20260903171003 63 189 4.0 7.0 0.00 0.00 0.00 78 1015.2
20260903170503 63 187 3.0 7.0 0.00 0.00 0.00 79 1015.2
20260903170024 63 171 3.0 7.0 0.00 0.00 0.00 79 1015.2
20260903165503 62 172 3.0 6.0 0.00 0.00 0.00 80 1015.2
20260903165003 62 171 3.0 7.0 0.00 0.00 0.00 81 1015.2
20260903164503 62 160 3.0 9.0 0.00 0.00 0.00 81 1015.2
20260903164003 62 158 3.0 9.0 0.00 0.00 0.00 82 1015.3
20260903163503 62 191 3.0 6.0 0.00 0.00 0.00 82 1015.3
20260903163024 61 196 4.0 9.0 0.00 0.00 0.00 82 1015.3
20260903162503 61 197 4.0 9.0 0.00 0.00 0.00 82 1015.3
20260903162003 61 203 4.0 6.0 0.00 0.00 0.00 83 1015.3
20260903161503 61 191 3.0 8.0 0.00 0.00 0.00 83 1015.3
20260903161003 61 171 3.0 8.0 0.00 0.00 0.00 84 1015.3
20260903160503 61 182 4.0 7.0 0.00 0.00 0.00 84 1015.3
20260903160003 61 195 3.0 6.0 0.00 0.00 0.00 84 1015.4
20260903155503 61 180 3.0 6.0 0.00 0.00 0.00 85 1015.4
20260903155003 61 165 2.0 6.0 0.00 0.00 0.00 86 1015.4
20260903154503 61 163 3.0 7.0 0.00 0.00 0.00 86 1015.4
20260903154003 61 169 3.0 7.0 0.00 0.00 0.00 87 1015.4
20260903153524 60 174 2.0 5.0 0.00 0.00 0.00 88 1015.4
20260903153003 60 178 2.0 6.0 0.00 0.00 0.00 89 1015.4
20260903152524 60 169 2.0 6.0 0.00 0.00 0.00 90 1015.4
20260903152024 60 162 2.0 6.0 0.00 0.00 0.00 90 1015.4
20260903151503 59 166 1.0 6.0 0.00 0.00 0.00 90 1015.4
20260903151003 59 167 1.0 4.0 0.00 0.00 0.00 91 1015.4
20260903150503 59 167 1.0 5.0 0.00 0.00 0.00 91 1015.4
20260903150003 59 170 1.0 5.0 0.00 0.00 0.00 91 1015.8
20260903145524 58 178 1.0 4.0 0.00 0.00 0.00 91 1015.8
20260903145024 58 182 1.0 3.0 0.00 0.00 0.00 92 1015.8
20260903144503 58 184 0.0 2.0 0.00 0.00 0.00 92 1015.8
20260903144024 58 184 0.0 2.0 0.00 0.00 0.00 92 1015.8
20260903143503 57 184 0.0 1.0 0.00 0.00 0.00 91 1015.8
20260903143004 57 184 0.0 2.0 0.00 0.00 0.00 91 1015.8
20260903142503 57 184 1.0 3.0 0.00 0.00 0.00 91 1015.8
20260903142003 57 184 1.0 3.0 0.00 0.00 0.00 91 1015.8
20260903141503 56 184 1.0 2.0 0.00 0.00 0.00 91 1015.8
20260903141003 56 184 1.0 3.0 0.00 0.00 0.00 91 1015.8
20260903140503 56 184 0.0 3.0 0.00 0.00 0.00 91 1015.8
20260903140004 56 184 0.0 3.0 0.00 0.00 0.00 91 1015.8
20260903135503 56 185 1.0 3.0 0.00 0.00 0.00 91 1015.8
20260903135003 56 185 1.0 3.0 0.00 0.00 0.00 91 1015.8
20260903134503 56 186 1.0 3.0 0.00 0.00 0.00 91 1015.8
20260903134003 56 187 2.0 3.0 0.00 0.00 0.00 91 1015.8
20260903133503 56 188 1.0 3.0 0.00 0.00 0.00 91 1015.8
20260903133003 56 189 1.0 3.0 0.00 0.00 0.00 91 1015.8
20260903132524 56 189 1.0 3.0 0.00 0.00 0.00 91 1015.8
20260903132003 56 190 1.0 3.0 0.00 0.00 0.00 92 1015.8
20260903131503 56 190 1.0 2.0 0.00 0.00 0.00 92 1015.8
20260903131003 56 190 1.0 3.0 0.00 0.00 0.00 92 1015.8
20260903130503 56 190 1.0 3.0 0.00 0.00 0.00 92 1015.8
20260903130003 56 191 1.0 3.0 0.00 0.00 0.00 92 1015.8
20260903125503 56 192 1.0 2.0 0.00 0.00 0.00 92 1015.8
20260903125003 56 193 1.0 2.0 0.00 0.00 0.00 92 1015.8
20260903124503 56 193 1.0 3.0 0.00 0.00 0.00 92 1015.8
20260903124003 57 194 1.0 3.0 0.00 0.00 0.00 92 1015.8
20260903123504 57 194 1.0 3.0 0.00 0.00 0.00 93 1015.8
20260903123024 57 194 1.0 3.0 0.00 0.00 0.00 93 1015.8
20260903122503 57 196 1.0 2.0 0.00 0.00 0.00 93 1015.8
20260903122003 57 197 1.0 3.0 0.00 0.00 0.00 93 1015.8
20260903121503 57 198 1.0 3.0 0.00 0.00 0.00 93 1015.8
20260903121003 57 198 0.0 2.0 0.00 0.00 0.00 93 1015.8
20260903120503 57 198 1.0 2.0 0.00 0.00 0.00 93 1015.8
20260903120003 57 198 1.0 2.0 0.00 0.00 0.00 93 1015.8
20260903115503 57 198 0.0 2.0 0.00 0.00 0.00 93 1015.8
20260903115003 57 198 1.0 2.0 0.00 0.00 0.00 93 1015.8
20260903114503 57 198 1.0 3.0 0.00 0.00 0.00 93 1015.8
20260903114024 57 199 1.0 3.0 0.00 0.00 0.00 93 1015.8
20260903113501 57 248 1.0 3.0 0.00 0.00 0.00 93 1015.8
20260903113001 57 281 1.0 3.0 0.00 0.00 0.00 93 1015.8
20260903112501 57 293 1.0 3.0 0.00 0.00 0.00 93 1015.8
20260903112001 57 296 0.0 1.0 0.00 0.00 0.00 93 1015.8
20260903111501 57 296 0.0 1.0 0.00 0.00 0.00 93 1015.8
20260903111002 57 296 0.0 2.0 0.00 0.00 0.00 93 1015.8
20260903110502 57 296 1.0 2.0 0.00 0.00 0.00 93 1015.8
20260903110023 57 296 1.0 2.0 0.00 0.00 0.00 93 1015.9
20260903105502 57 297 1.0 2.0 0.00 0.00 0.00 92 1015.9
20260903105002 57 297 1.0 2.0 0.00 0.00 0.00 92 1015.9
20260903104523 57 297 1.0 2.0 0.00 0.00 0.00 92 1015.9
20260903104002 57 297 0.0 2.0 0.00 0.00 0.00 92 1015.9
20260903103001 57 0 0.0 0.0 0.00 0.00 0.00 92 1015.9
20260903102502 57 0 0.0 0.0 0.00 0.00 0.00 92 1015.8
20260903102002 57 297 0.0 3.0 0.00 0.00 0.00 92 1015.8
20260903101502 57 297 0.0 3.0 0.00 0.00 0.00 92 1015.8
20260903101001 57 299 0.0 2.0 0.00 0.00 0.00 92 1015.8
20260903100501 57 300 0.0 2.0 0.00 0.00 0.00 92 1015.8
20260903100002 57 0 0.0 0.0 0.00 0.00 0.00 92 1015.8
20260903095522 57 0 0.0 0.0 0.00 0.00 0.00 92 1015.8
20260903095023 57 0 0.0 0.0 0.00 0.00 0.00 92 1016.9
20260903094501 57 0 0.0 0.0 0.00 0.00 0.00 92 1016.9
20260903094002 58 0 0.0 0.0 0.00 0.00 0.00 92 1016.9
20260903093502 58 0 0.0 0.0 0.00 0.00 0.00 92 1016.9
20260903093002 58 0 0.0 0.0 0.00 0.00 0.00 92 1016.9
20260903092502 58 0 0.0 0.0 0.00 0.00 0.00 92 1016.9
20260903092023 58 0 0.0 0.0 0.00 0.00 0.00 92 1016.9
20260903091502 58 0 0.0 0.0 0.00 0.00 0.00 92 1016.9
20260903091002 58 0 0.0 0.0 0.00 0.00 0.00 92 1016.9
20260903090502 58 0 0.0 0.0 0.00 0.00 0.00 92 1016.9
20260903090023 58 303 0.0 1.0 0.00 0.00 0.00 92 1016.9
20260903085501 58 303 0.0 2.0 0.00 0.00 0.00 92 1016.9
20260903085002 58 304 0.0 2.0 0.00 0.00 0.00 92 1016.9
20260903084523 58 304 0.0 2.0 0.00 0.00 0.00 92 1016.9
20260903084002 58 304 0.0 2.0 0.00 0.00 0.00 92 1016.9
20260903083502 58 306 0.0 2.0 0.00 0.00 0.00 92 1016.9
20260903083002 58 311 0.0 2.0 0.00 0.00 0.00 92 1016.9
20260903082502 58 314 0.0 2.0 0.00 0.00 0.00 92 1016.9
20260903082023 58 317 0.0 2.0 0.00 0.00 0.00 92 1016.9
20260903081502 58 317 0.0 2.0 0.00 0.00 0.00 92 1016.9
20260903081023 58 0 0.0 0.0 0.00 0.00 0.00 92 1016.9
20260903080502 58 317 0.0 1.0 0.00 0.00 0.00 92 1016.9
20260903080023 58 317 0.0 1.0 0.00 0.00 0.00 92 1016.9
20260903075502 58 317 0.0 2.0 0.00 0.00 0.00 92 1016.9
20260903075002 58 317 0.0 2.0 0.00 0.00 0.00 92 1016.9
20260903074502 58 317 0.0 3.0 0.00 0.00 0.00 91 1016.9
20260903074002 58 317 0.0 3.0 0.00 0.00 0.00 92 1016.9
20260903073502 58 317 0.0 2.0 0.00 0.00 0.00 91 1016.9
20260903073002 58 317 0.0 2.0 0.00 0.00 0.00 91 1016.9
20260903072504 58 317 0.0 1.0 0.00 0.00 0.00 91 1016.9
20260903072002 58 317 0.0 1.0 0.00 0.00 0.00 92 1016.9
20260903071502 58 317 0.0 1.0 0.00 0.00 0.00 91 1016.9
20260903071002 58 317 0.0 1.0 0.00 0.00 0.00 91 1016.9
20260903070502 58 317 0.0 1.0 0.00 0.00 0.00 91 1016.9
20260903070012 58 319 0.0 2.0 0.00 0.00 0.00 91 1016.9
20260903065502 58 320 0.0 2.0 0.00 0.00 0.00 91 1016.9
20260903065023 58 321 0.0 2.0 0.00 0.00 0.00 91 1016.9
20260903064523 58 328 0.0 2.0 0.00 0.00 0.00 91 1016.9
20260903064023 58 331 0.0 2.0 0.00 0.00 0.00 91 1016.9
20260903063523 58 340 0.0 2.0 0.00 0.00 0.00 91 1016.9
20260903063002 58 340 0.0 2.0 0.00 0.00 0.00 91 1016.9
20260903062502 58 340 0.0 2.0 0.00 0.00 0.00 91 1016.9
20260903062002 58 340 0.0 1.0 0.00 0.00 0.00 91 1016.9
20260903061502 58 341 0.0 1.0 0.00 0.00 0.00 90 1016.9
20260903061023 58 340 0.0 2.0 0.00 0.00 0.00 90 1016.9
20260903060502 58 339 0.0 2.0 0.00 0.00 0.00 90 1016.9
20260903060002 58 338 0.0 1.0 0.00 0.00 0.00 90 1016.9
20260903055502 58 338 0.0 1.0 0.00 0.00 0.00 90 1016.9
20260903055002 58 338 0.0 3.0 0.00 0.00 0.00 90 1016.9
20260903054523 58 338 0.0 3.0 0.00 0.00 0.00 90 1016.9
20260903054002 58 340 0.0 2.0 0.00 0.00 0.00 90 1016.9
20260903053502 58 340 0.0 2.0 0.00 0.00 0.00 89 1016.5
20260903053002 58 340 0.0 2.0 0.00 0.00 0.00 89 1016.5
20260903052523 58 342 0.0 2.0 0.00 0.00 0.00 89 1016.5